Time,TemperatureF,DewpointF,PressureIn,WindDirection,WindDirectionDegrees,WindSpeedMPH,WindSpeedGustMPH,Humidity,HourlyPrecipIn,Conditions,Clouds,dailyrainin,SoftwareType,DateUTC
2013-06-29 00:03:00,67.6,63.0,29.61,NW,315,1.0,5.0,85,0.00,,,0.10,weatherlink.com 1.10,2013-06-29 05:03:00,
2013-06-29 00:18:00,67.5,63.0,29.60,NNW,342,2.0,8.0,85,0.00,,,0.10,weatherlink.com 1.10,2013-06-29 05:18:00,
2013-06-29 00:33:00,66.9,63.0,29.60,NNW,340,1.0,6.0,86,0.00,,,0.10,weatherlink.com 1.10,2013-06-29 05:33:00,
2013-06-29 00:48:00,66.8,63.0,29.60,NNW,339,2.0,6.0,86,0.00,,,0.10,weatherlink.com 1.10,2013-06-29 05:48:00,
2013-06-29 01:03:00,66.6,63.0,29.59,NNW,339,3.0,5.0,87,0.00,,,0.10,weatherlink.com 1.10,2013-06-29 06:03:00,
2013-06-29 01:18:00,66.2,63.0,29.59,NNW,339,3.0,3.0,88,0.00,,,0.10,weatherlink.com 1.10,2013-06-29 06:18:00,
2013-06-29 01:33:00,65.9,63.0,29.59,NNW,339,0.0,3.0,89,0.00,,,0.10,weatherlink.com 1.10,2013-06-29 06:33:00,
2013-06-29 01:57:00,65.0,62.0,29.59,NNW,334,2.0,6.0,91,0.00,,,0.10,weatherlink.com 1.10,2013-06-29 06:57:00,
2013-06-29 02:03:00,65.1,63.0,29.59,NNW,334,2.0,6.0,91,0.00,,,0.10,weatherlink.com 1.10,2013-06-29 07:03:00,
2013-06-29 02:18:00,65.2,62.0,29.59,NNW,333,2.0,5.0,90,0.00,,,0.10,weatherlink.com 1.10,2013-06-29 07:18:00,
2013-06-29 02:33:00,65.4,63.0,29.59,NNW,333,0.0,3.0,90,0.00,,,0.10,weatherlink.com 1.10,2013-06-29 07:33:00,
2013-06-29 02:48:00,65.4,63.0,29.59,NNW,331,3.0,6.0,90,0.00,,,0.00,weatherlink.com 1.10,2013-06-29 07:48:00,
2013-06-29 03:03:00,64.9,62.0,29.58,NNW,331,2.0,4.0,90,0.00,,,0.00,weatherlink.com 1.10,2013-06-29 08:03:00,
2013-06-29 03:18:00,64.1,62.0,29.58,NNW,331,2.0,3.0,91,0.00,,,0.00,weatherlink.com 1.10,2013-06-29 08:18:00,
2013-06-29 03:33:00,63.7,61.0,29.58,NNW,331,4.0,4.0,92,0.00,,,0.00,weatherlink.com 1.10,2013-06-29 08:33:00,
2013-06-29 03:48:00,63.3,61.0,29.59,NNW,331,0.0,4.0,93,0.00,,,0.00,weatherlink.com 1.10,2013-06-29 08:48:00,
2013-06-29 04:03:00,63.4,61.0,29.59,NNW,331,1.0,4.0,93,0.00,,,0.00,weatherlink.com 1.10,2013-06-29 09:03:00,
2013-06-29 04:18:00,63.5,62.0,29.59,NNW,331,5.0,5.0,93,0.00,,,0.00,weatherlink.com 1.10,2013-06-29 09:18:00,
2013-06-29 04:33:00,63.7,61.0,29.59,NNW,331,6.0,6.0,92,0.00,,,0.00,weatherlink.com 1.10,2013-06-29 09:33:00,
2013-06-29 04:48:00,63.8,62.0,29.59,NNW,331,0.0,5.0,92,0.00,,,0.00,weatherlink.com 1.10,2013-06-29 09:48:00,
2013-06-29 05:03:00,63.7,61.0,29.60,NNW,331,5.0,6.0,92,0.00,,,0.00,weatherlink.com 1.10,2013-06-29 10:03:00,
2013-06-29 05:18:00,63.6,61.0,29.60,NNW,327,2.0,6.0,92,0.00,,,0.00,weatherlink.com 1.10,2013-06-29 10:18:00,
2013-06-29 05:33:00,63.9,62.0,29.60,WNW,302,6.0,10.0,93,0.00,,,0.00,weatherlink.com 1.10,2013-06-29 10:33:00,
2013-06-29 05:48:00,64.3,62.0,29.59,WNW,300,2.0,8.0,92,0.00,,,0.00,weatherlink.com 1.10,2013-06-29 10:48:00,
2013-06-29 06:03:00,64.3,62.0,29.59,WNW,300,3.0,7.0,92,0.00,,,0.00,weatherlink.com 1.10,2013-06-29 11:03:00,
2013-06-29 06:18:00,64.0,62.0,29.60,WNW,298,4.0,8.0,92,0.00,,,0.00,weatherlink.com 1.10,2013-06-29 11:18:00,
2013-06-29 06:33:00,64.2,62.0,29.60,WNW,302,0.0,8.0,93,0.00,,,0.00,weatherlink.com 1.10,2013-06-29 11:33:00,
2013-06-29 06:48:00,64.4,62.0,29.60,WNW,301,4.0,8.0,93,0.00,,,0.00,weatherlink.com 1.10,2013-06-29 11:48:00,
2013-06-29 07:03:00,64.5,63.0,29.60,NW,308,5.0,8.0,93,0.00,,,0.00,weatherlink.com 1.10,2013-06-29 12:03:00,
2013-06-29 07:18:00,64.9,63.0,29.60,WNW,297,4.0,9.0,94,0.00,,,0.00,weatherlink.com 1.10,2013-06-29 12:18:00,
2013-06-29 07:33:00,65.3,64.0,29.60,NW,306,2.0,9.0,94,0.00,,,0.00,weatherlink.com 1.10,2013-06-29 12:33:00,
2013-06-29 07:48:00,65.6,64.0,29.60,NW,313,6.0,8.0,93,0.00,,,0.00,weatherlink.com 1.10,2013-06-29 12:48:00,
2013-06-29 08:03:00,65.9,64.0,29.60,NNW,331,1.0,6.0,93,0.00,,,0.00,weatherlink.com 1.10,2013-06-29 13:03:00,
2013-06-29 08:18:00,66.2,64.0,29.60,NNW,345,5.0,10.0,92,0.00,,,0.00,weatherlink.com 1.10,2013-06-29 13:18:00,
2013-06-29 08:33:00,66.3,64.0,29.61,WNW,294,3.0,7.0,92,0.00,,,0.00,weatherlink.com 1.10,2013-06-29 13:33:00,
2013-06-29 08:48:00,66.3,64.0,29.61,WNW,300,3.0,8.0,92,0.00,,,0.00,weatherlink.com 1.10,2013-06-29 13:48:00,
2013-06-29 09:03:00,66.3,64.0,29.61,WNW,297,3.0,11.0,92,0.00,,,0.00,weatherlink.com 1.10,2013-06-29 14:03:00,
2013-06-29 09:18:00,66.6,64.0,29.61,WNW,303,7.0,9.0,92,0.00,,,0.00,weatherlink.com 1.10,2013-06-29 14:18:00,
2013-06-29 09:33:00,66.6,64.0,29.61,WNW,299,0.0,8.0,92,0.00,,,0.00,weatherlink.com 1.10,2013-06-29 14:33:00,
2013-06-29 09:49:00,66.9,65.0,29.60,NW,317,3.0,7.0,93,0.01,,,0.01,weatherlink.com 1.10,2013-06-29 14:49:00,
2013-06-29 10:04:00,67.5,65.0,29.60,WNW,299,4.0,7.0,91,0.01,,,0.01,weatherlink.com 1.10,2013-06-29 15:04:00,
2013-06-29 10:19:00,68.4,65.0,29.59,WNW,294,4.0,10.0,89,0.01,,,0.01,weatherlink.com 1.10,2013-06-29 15:19:00,
2013-06-29 10:34:00,69.0,64.0,29.59,NNW,333,4.0,11.0,84,0.00,,,0.01,weatherlink.com 1.10,2013-06-29 15:34:00,
2013-06-29 10:49:00,69.7,64.0,29.60,NNW,340,4.0,10.0,83,0.00,,,0.01,weatherlink.com 1.10,2013-06-29 15:49:00,
2013-06-29 11:04:00,70.1,65.0,29.60,NW,325,5.0,11.0,83,0.00,,,0.01,weatherlink.com 1.10,2013-06-29 16:04:00,
2013-06-29 11:19:00,70.0,64.0,29.60,NW,306,6.0,9.0,82,0.00,,,0.01,weatherlink.com 1.10,2013-06-29 16:19:00,
2013-06-29 11:34:00,71.3,64.0,29.59,NW,323,4.0,10.0,78,0.00,,,0.01,weatherlink.com 1.10,2013-06-29 16:34:00,
2013-06-29 11:49:00,71.3,65.0,29.59,NW,321,4.0,8.0,81,0.00,,,0.01,weatherlink.com 1.10,2013-06-29 16:49:00,
2013-06-29 12:04:00,68.2,63.0,29.60,NNE,18,8.0,17.0,84,0.00,,,0.01,weatherlink.com 1.10,2013-06-29 17:04:00,
2013-06-29 12:19:00,66.6,64.0,29.60,NNE,17,3.0,9.0,90,0.09,,,0.10,weatherlink.com 1.10,2013-06-29 17:19:00,
2013-06-29 12:34:00,67.0,65.0,29.60,NNE,22,4.0,7.0,92,0.10,,,0.11,weatherlink.com 1.10,2013-06-29 17:34:00,
2013-06-29 12:49:00,67.8,66.0,29.61,NE,34,5.0,11.0,93,0.10,,,0.11,weatherlink.com 1.10,2013-06-29 17:49:00,
2013-06-29 13:04:00,68.1,65.0,29.61,NE,40,4.0,8.0,89,0.10,,,0.11,weatherlink.com 1.10,2013-06-29 18:04:00,
2013-06-29 13:19:00,68.7,65.0,29.61,NE,51,3.0,9.0,87,0.01,,,0.11,weatherlink.com 1.10,2013-06-29 18:19:00,
2013-06-29 13:34:00,69.5,65.0,29.60,North,351,4.0,8.0,86,0.00,,,0.11,weatherlink.com 1.10,2013-06-29 18:34:00,
2013-06-29 13:49:00,70.1,65.0,29.60,North,350,4.0,9.0,84,0.00,,,0.11,weatherlink.com 1.10,2013-06-29 18:49:00,
2013-06-29 14:04:00,70.4,65.0,29.60,North,360,2.0,5.0,83,0.00,,,0.11,weatherlink.com 1.10,2013-06-29 19:04:00,
2013-06-29 14:19:00,70.0,65.0,29.60,NNW,333,2.0,10.0,85,0.00,,,0.11,weatherlink.com 1.10,2013-06-29 19:19:00,
2013-06-29 14:34:00,69.5,65.0,29.61,NW,309,4.0,10.0,85,0.00,,,0.11,weatherlink.com 1.10,2013-06-29 19:34:00,
2013-06-29 14:49:00,68.3,63.0,29.61,ENE,63,4.0,15.0,84,0.14,,,0.25,weatherlink.com 1.10,2013-06-29 19:49:00,
2013-06-29 15:04:00,68.5,65.0,29.61,WNW,299,3.0,13.0,87,0.15,,,0.26,weatherlink.com 1.10,2013-06-29 20:04:00,
2013-06-29 15:19:00,69.0,64.0,29.61,NNW,338,5.0,12.0,85,0.15,,,0.26,weatherlink.com 1.10,2013-06-29 20:19:00,
2013-06-29 15:34:00,69.4,65.0,29.62,North,11,5.0,11.0,85,0.15,,,0.26,weatherlink.com 1.10,2013-06-29 20:34:00,
2013-06-29 15:49:00,69.0,64.0,29.62,NW,308,4.0,15.0,85,0.00,,,0.26,weatherlink.com 1.10,2013-06-29 20:49:00,
2013-06-29 16:04:00,68.6,64.0,29.63,NNE,13,6.0,13.0,85,0.00,,,0.26,weatherlink.com 1.10,2013-06-29 21:04:00,
2013-06-29 16:19:00,65.8,63.0,29.64,North,5,7.0,11.0,89,0.00,,,0.26,weatherlink.com 1.10,2013-06-29 21:19:00,
2013-06-29 16:34:00,64.4,62.0,29.63,NE,34,5.0,16.0,91,0.09,,,0.35,weatherlink.com 1.10,2013-06-29 21:34:00,
2013-06-29 16:49:00,64.1,62.0,29.63,NNE,17,6.0,9.0,93,0.12,,,0.38,weatherlink.com 1.10,2013-06-29 21:49:00,
2013-06-29 17:04:00,64.8,63.0,29.63,NNE,30,7.0,10.0,95,0.12,,,0.38,weatherlink.com 1.10,2013-06-29 22:04:00,
2013-06-29 17:19:00,64.8,63.0,29.62,NE,48,7.0,14.0,95,0.13,,,0.39,weatherlink.com 1.10,2013-06-29 22:19:00,
2013-06-29 17:34:00,64.8,63.0,29.62,NNE,26,8.0,12.0,95,0.03,,,0.39,weatherlink.com 1.10,2013-06-29 22:34:00,
2013-06-29 17:49:00,65.0,64.0,29.62,NNW,336,5.0,10.0,95,0.02,,,0.40,weatherlink.com 1.10,2013-06-29 22:49:00,
2013-06-29 18:04:00,65.3,64.0,29.63,North,360,7.0,13.0,95,0.02,,,0.40,weatherlink.com 1.10,2013-06-29 23:04:00,
2013-06-29 18:19:00,65.7,64.0,29.64,NNE,20,6.0,10.0,95,0.01,,,0.40,weatherlink.com 1.10,2013-06-29 23:19:00,
2013-06-29 18:34:00,65.9,65.0,29.65,North,351,5.0,13.0,95,0.01,,,0.40,weatherlink.com 1.10,2013-06-29 23:34:00,
2013-06-29 18:49:00,66.2,65.0,29.65,North,9,10.0,14.0,94,0.00,,,0.40,weatherlink.com 1.10,2013-06-29 23:49:00,
2013-06-29 19:04:00,66.3,65.0,29.65,NE,34,8.0,12.0,94,0.00,,,0.40,weatherlink.com 1.10,2013-06-30 00:04:00,
2013-06-29 19:19:00,66.4,65.0,29.66,North,355,11.0,12.0,94,0.00,,,0.40,weatherlink.com 1.10,2013-06-30 00:19:00,
2013-06-29 19:34:00,66.5,65.0,29.66,NNE,13,8.0,16.0,93,0.00,,,0.40,weatherlink.com 1.10,2013-06-30 00:34:00,
2013-06-29 19:49:00,65.9,64.0,29.67,NNW,329,4.0,12.0,94,0.01,,,0.41,weatherlink.com 1.10,2013-06-30 00:49:00,
2013-06-29 20:04:00,66.1,64.0,29.67,NNE,24,9.0,14.0,93,0.01,,,0.41,weatherlink.com 1.10,2013-06-30 01:04:00,
2013-06-29 20:19:00,66.0,64.0,29.67,North,360,7.0,13.0,92,0.01,,,0.41,weatherlink.com 1.10,2013-06-30 01:19:00,
2013-06-29 20:34:00,65.9,64.0,29.68,NNW,347,7.0,11.0,93,0.01,,,0.41,weatherlink.com 1.10,2013-06-30 01:34:00,
2013-06-29 20:50:00,65.8,64.0,29.68,NNE,18,4.0,11.0,93,0.00,,,0.41,weatherlink.com 1.10,2013-06-30 01:50:00,
2013-06-29 21:04:00,65.6,63.0,29.69,North,5,5.0,11.0,91,0.00,,,0.41,weatherlink.com 1.10,2013-06-30 02:04:00,
2013-06-29 21:20:00,65.3,62.0,29.70,NE,34,6.0,13.0,88,0.00,,,0.41,weatherlink.com 1.10,2013-06-30 02:20:00,
2013-06-29 21:35:00,64.9,61.0,29.71,NNE,15,8.0,12.0,87,0.00,,,0.41,weatherlink.com 1.10,2013-06-30 02:35:00,
2013-06-29 21:50:00,64.3,61.0,29.71,NNE,26,5.0,11.0,88,0.00,,,0.41,weatherlink.com 1.10,2013-06-30 02:50:00,
2013-06-29 22:05:00,63.7,61.0,29.71,NNE,17,5.0,8.0,90,0.00,,,0.41,weatherlink.com 1.10,2013-06-30 03:05:00,
2013-06-29 22:20:00,63.6,61.0,29.71,North,11,4.0,8.0,90,0.00,,,0.41,weatherlink.com 1.10,2013-06-30 03:20:00,
2013-06-29 22:35:00,63.6,60.0,29.71,NNE,16,7.0,11.0,89,0.00,,,0.41,weatherlink.com 1.10,2013-06-30 03:35:00,
2013-06-29 22:50:00,63.2,60.0,29.71,NNE,19,5.0,8.0,90,0.00,,,0.41,weatherlink.com 1.10,2013-06-30 03:50:00,
2013-06-29 23:05:00,62.9,60.0,29.71,NNE,19,6.0,9.0,90,0.00,,,0.41,weatherlink.com 1.10,2013-06-30 04:05:00,
2013-06-29 23:20:00,62.6,60.0,29.72,North,5,6.0,9.0,90,0.00,,,0.41,weatherlink.com 1.10,2013-06-30 04:20:00,
2013-06-29 23:35:00,62.6,59.0,29.72,NNE,17,7.0,11.0,88,0.00,,,0.41,weatherlink.com 1.10,2013-06-30 04:35:00,
2013-06-29 23:50:00,62.2,59.0,29.72,North,355,2.0,8.0,88,0.00,,,0.41,weatherlink.com 1.10,2013-06-30 04:50:00,